Location: Kitt Peak
(31.9639°N, 111.5992°W)
Time: 05:10:55
(UTC-07:00)

NANOSAT C BR1 - Visible Passes

Search period start: 17 September 2024 00:00
Search period end: 27 September 2024 00:00
Orbit: 543 x 550 km, 98.1° (Epoch: 17 September)

Date Brightness Start Highest point End Pass type
(mag) Time Alt. Az. Time Alt. Az. Time Alt. Az.
17 Sep ? 04:16:40 10° NNE 04:20:16 34° E 04:23:23 13° SSE visible
18 Sep ? 04:11:25 10° NE 04:14:51 29° E 04:17:55 12° SSE visible
18 Sep ? 05:46:55 10° NW 05:49:09 15° WNW 05:51:24 10° WSW visible
19 Sep ? 04:06:06 10° NE 04:09:20 24° E 04:12:21 11° SSE visible
19 Sep ? 05:41:04 10° NNW 05:43:41 17° WNW 05:46:18 10° WSW visible
20 Sep ? 04:00:43 10° NE 04:03:42 21° E 04:06:39 10° SE visible
20 Sep ? 05:35:13 10° NNW 05:38:08 20° WNW 05:41:03 10° WSW visible
21 Sep ? 03:55:19 10° NE 03:57:57 17° E 04:00:35 10° SE visible
21 Sep ? 05:29:16 10° NNW 05:32:27 24° WNW 05:35:38 10° SW visible
22 Sep ? 03:49:55 10° ENE 03:52:06 14° E 03:54:18 10° SE visible
22 Sep ? 05:23:17 10° NNW 05:26:41 29° WNW 05:30:03 10° SW visible
23 Sep ? 03:44:36 10° ENE 03:46:09 12° E 03:47:41 10° ESE visible
23 Sep ? 05:17:13 10° N 05:20:47 34° WNW 05:24:20 10° SW visible
24 Sep ? 05:11:06 10° N 05:14:48 41° WNW 05:18:28 10° SW visible
25 Sep ? 05:04:54 10° N 05:08:42 51° WNW 05:12:22 11° SSW visible
26 Sep ? 04:58:37 10° N 05:02:29 64° WNW 05:06:04 12° SSW visible
